Total_Precipitation_Accumulation
1.72 1.54 1.32 1.23 1.16 1.04 1.00 1.01 0.96 0.94 0.90 0.84 0.80 0.70 0.65 0.60 0.55 0.48 0.44 0.46 0.60 0.91 1.20 1.39 1.44 1.40 1.41 1.36 1.18 1.10 1.04 1.02 1.00 0.96 0.92 0.89 0.87 0.87 0.89 0.88 0.87 0.88 0.89
1.92 1.82 1.64 1.48 1.36 1.23 1.12 1.07 0.98 0.97 0.98 0.92 0.84 0.76 0.73 0.67 0.63 0.58 0.46 0.40 0.46 0.64 1.01 1.38 1.66 1.75 1.78 1.77 1.57 1.45 1.34 1.22 1.18 1.08 1.04 1.02 0.96 0.94 0.96 0.96 0.95 0.96 0.98
2.08 2.06 1.90 1.72 1.50 1.45 1.42 1.34 1.21 1.11 1.05 1.01 0.94 0.86 0.83 0.75 0.69 0.69 0.61 0.51 0.46 0.48 0.70 1.09 1.48 1.70 1.83 1.98 1.91 1.74 1.58 1.41 1.31 1.22 1.15 1.12 1.08 1.03 1.03 1.06 1.08 1.07 1.08
2.18 2.24 2.08 1.94 1.82 1.65 1.58 1.52 1.42 1.30 1.20 1.14 1.07 1.02 0.98 0.91 0.77 0.70 0.67 0.64 0.61 0.54 0.56 0.80 1.10 1.35 1.56 1.78 1.98 2.00 1.85 1.61 1.41 1.27 1.21 1.19 1.19 1.18 1.17 1.18 1.20 1.19 1.18
2.49 2.36 2.19 2.05 2.08 1.99 1.76 1.64 1.56 1.39 1.29 1.20 1.14 1.11 1.07 1.01 0.93 0.85 0.76 0.67 0.61 0.60 0.61 0.71 0.84 0.98 1.17 1.38 1.70 1.98 2.00 1.88 1.65 1.45 1.32 1.26 1.23 1.27 1.34 1.39 1.36 1.32 1.31
2.72 2.70 2.48 2.37 2.32 2.27 2.07 1.83 1.66 1.51 1.36 1.35 1.31 1.23 1.18 1.17 1.07 0.99 0.92 0.85 0.74 0.64 0.63 0.66 0.75 0.79 0.90 1.07 1.32 1.62 1.81 1.91 1.84 1.72 1.59 1.53 1.47 1.46 1.53 1.58 1.57 1.56 1.57
2.76 2.84 2.71 2.64 2.56 2.37 2.23 2.08 1.90 1.72 1.55 1.54 1.57 1.40 1.26 1.23 1.21 1.09 1.02 0.96 0.89 0.83 0.78 0.76 0.77 0.78 0.78 0.90 1.03 1.25 1.43 1.58 1.75 1.81 1.74 1.68 1.69 1.68 1.69 1.74 1.75 1.75 1.80
2.96 2.92 2.79 2.77 2.78 2.60 2.44 2.29 2.17 1.97 1.76 1.71 1.73 1.73 1.54 1.39 1.23 1.10 1.05 0.98 0.92 0.93 0.94 0.93 0.92 0.91 0.86 0.85 0.85 0.97 1.13 1.35 1.65 1.96 2.02 1.93 1.96 1.96 1.98 2.03 2.09 2.12 2.15
3.12 2.96 2.90 2.90 2.91 2.86 2.73 2.61 2.54 2.35 2.12 1.99 1.86 1.97 1.81 1.47 1.20 1.12 1.06 1.00 0.95 0.95 0.98 1.01 1.03 1.05 1.00 0.92 0.88 0.91 1.01 1.21 1.58 2.00 2.24 2.30 2.29 2.30 2.41 2.48 2.55 2.61 2.56
3.19 3.09 3.01 2.99 2.98 2.95 2.87 2.85 2.80 2.69 2.53 2.37 2.19 1.95 1.75 1.50 1.36 1.21 1.08 1.04 1.04 1.02 1.04 1.08 1.11 1.17 1.15 1.05 1.03 1.05 1.10 1.22 1.49 1.94 2.36 2.62 2.76 2.88 2.98 3.08 3.11 3.12 3.01
3.18 3.07 2.96 2.92 2.92 2.98 2.99 2.93 2.86 2.85 2.70 2.48 2.30 2.13 1.94 1.64 1.39 1.31 1.14 1.01 1.01 0.97 0.99 1.03 1.06 1.09 1.17 1.11 1.11 1.24 1.34 1.37 1.57 1.92 2.43 2.89 3.18 3.43 3.62 3.71 3.72 3.64 3.52
3.05 2.97 2.89 2.77 2.72 2.80 2.93 3.04 2.96 2.88 2.82 2.61 2.38 2.16 2.03 1.86 1.61 1.48 1.34 1.14 1.11 1.01 0.96 0.97 1.04 1.12 1.24 1.22 1.24 1.43 1.47 1.51 1.69 2.00 2.47 2.89 3.18 3.46 3.66 3.91 4.00 3.92 3.83
2.85 2.65 2.66 2.66 2.57 2.54 2.69 2.90 2.97 2.89 2.82 2.72 2.57 2.35 2.15 1.90 1.72 1.71 1.70 1.55 1.39 1.20 1.13 1.09 1.07 1.13 1.29 1.38 1.39 1.55 1.49 1.55 1.65 1.84 2.22 2.60 2.78 2.93 3.13 3.51 3.85 3.94 3.85
2.85 2.64 2.53 2.59 2.64 2.58 2.57 2.69 2.73 2.68 2.69 2.67 2.59 2.49 2.37 2.13 1.95 1.88 1.91 2.03 2.00 1.70 1.49 1.33 1.27 1.31 1.38 1.49 1.57 1.65 1.47 1.64 1.66 1.71 1.89 2.13 2.22 2.27 2.36 2.57 2.93 3.22 3.42
2.69 2.64 2.56 2.52 2.52 2.59 2.61 2.65 2.63 2.49 2.45 2.46 2.41 2.40 2.35 2.18 2.09 2.01 2.04 2.18 2.43 2.31 1.88 1.52 1.46 1.48 1.51 1.56 1.65 1.45 1.27 1.50 1.56 1.54 1.60 1.70 1.76 1.73 1.78 1.93 2.09 2.25 2.44
2.31 2.41 2.46 2.39 2.37 2.36 2.40 2.50 2.52 2.42 2.33 2.27 2.23 2.22 2.19 2.10 2.06 2.06 2.05 2.08 2.23 2.38 2.15 1.59 1.35 1.33 1.40 1.46 1.60 1.34 1.19 1.41 1.34 1.32 1.39 1.46 1.51 1.49 1.50 1.62 1.73 1.77 1.80
2.07 2.11 2.17 2.18 2.17 2.18 2.16 2.21 2.24 2.23 2.21 2.10 2.06 2.06 2.02 1.93 1.94 1.93 1.95 1.98 1.99 2.05 2.04 1.57 1.25 1.18 1.26 1.29 1.34 1.23 1.10 1.08 1.05 1.19 1.19 1.25 1.29 1.31 1.35 1.41 1.50 1.58 1.62
1.81 1.89 1.92 1.95 1.96 1.96 1.94 1.94 1.92 1.91 1.95 1.91 1.84 1.85 1.84 1.82 1.80 1.77 1.81 1.82 1.77 1.73 1.74 1.57 1.27 1.14 1.10 1.06 1.06 1.06 0.98 0.93 0.88 1.03 1.04 1.06 1.12 1.17 1.21 1.23 1.32 1.38 1.44
1.57 1.66 1.74 1.76 1.77 1.77 1.72 1.68 1.66 1.63 1.58 1.59 1.60 1.63 1.62 1.69 1.76 1.73 1.69 1.64 1.56 1.53 1.55 1.52 1.29 1.09 1.02 0.99 1.02 1.01 0.92 0.86 0.81 0.87 0.91 0.92 0.96 1.04 1.12 1.16 1.18 1.21 1.22
1.51 1.51 1.56 1.61 1.63 1.66 1.68 1.61 1.57 1.59 1.54 1.47 1.47 1.55 1.58 1.59 1.61 1.60 1.59 1.54 1.51 1.55 1.53 1.56 1.46 1.26 1.16 1.08 1.12 1.11 1.06 0.93 0.85 0.81 0.91 0.95 1.00 1.04 1.05 1.06 1.01 0.97 0.98
1.57 1.51 1.52 1.56 1.59 1.65 1.69 1.72 1.72 1.74 1.77 1.75 1.66 1.61 1.60 1.66 1.67 1.65 1.62 1.54 1.54 1.63 1.66 1.68 1.59 1.40 1.24 1.20 1.21 1.13 1.13 1.10 1.02 0.93 0.95 0.91 0.90 0.89 0.91 0.97 1.02 1.01 0.98
1.71 1.61 1.61 1.62 1.65 1.69 1.95 1.98 1.89 1.85 1.88 1.83 1.74 1.60 1.53 1.58 1.55 1.62 1.65 1.62 1.67 1.76 1.84 1.82 1.63 1.37 1.09 1.02 1.08 1.20 1.31 1.45 1.40 1.02 0.97 0.94 0.88 0.92 0.86 0.86 1.00 1.06 1.08
1.79 1.77 1.76 1.81 1.83 1.85 1.99 1.90 1.92 1.81 1.78 1.66 1.57 1.51 1.43 1.39 1.45 1.36 1.48 1.62 1.68 1.77 1.75 1.65 1.51 1.19 1.00 0.93 1.15 1.44 1.47 1.45 1.24 0.97 1.07 1.12 0.97 0.94 0.83 0.87 1.06 1.04 1.07
1.96 1.94 1.93 1.94 1.92 1.91 1.91 1.78 1.76 1.62 1.56 1.48 1.38 1.34 1.32 1.29 1.29 1.33 1.42 1.53 1.41 1.34 1.31 1.22 1.17 1.09 1.03 1.05 1.27 1.55 1.64 1.61 1.36 1.18 1.22 1.35 1.11 1.01 0.86 0.85 0.99 1.00 1.04
2.09 2.04 1.95 1.84 1.74 1.68 1.69 1.60 1.60 1.46 1.42 1.35 1.26 1.21 1.24 1.19 1.33 1.56 1.59 1.53 1.34 1.21 1.26 1.30 1.31 1.29 1.36 1.41 1.46 1.70 1.92 2.09 1.85 1.41 1.24 1.33 1.15 1.09 1.04 0.94 0.93 1.02 1.01
1.89 1.84 1.77 1.66 1.52 1.40 1.45 1.46 1.48 1.36 1.34 1.24 1.18 1.14 1.24 1.22 1.42 1.62 1.52 1.47 1.37 1.20 1.18 1.19 1.19 1.18 1.15 1.20 1.42 1.53 1.88 2.35 2.13 1.69 1.21 1.33 1.30 1.37 1.61 1.15 0.94 0.96 1.01